SP4FDH-13 Weather Reports


time (UTC)temp
C
wind
direction
speed
KPH
gust
KPH
rain 1hr
cm
rain 24hr
cm
rain mn
cm
humidity
%
barometer
mb
20260507034038 13 0.0 0.0 0.00 0.00 0.00 10 1008.0
20260507033058 13 0.0 0.0 0.00 0.00 0.00 10 1008.5
20260507032121 13 0.0 0.0 0.00 0.00 0.00 10 1008.4
20260507031144 13 0.0 0.0 0.00 0.00 0.00 10 1007.9
20260507030208 13 0.0 0.0 0.00 0.00 0.00 10 1007.9
20260507025231 13 0.0 0.0 0.00 0.00 0.00 10 1007.6
20260507024254 13 0.0 0.0 0.00 0.00 0.00 10 1007.1
20260507023318 13 0.0 0.0 0.00 0.00 0.00 10 1006.5
20260507022342 13 0.0 0.0 0.00 0.00 0.00 10 1007.1
20260507021406 13 0.0 0.0 0.00 0.00 0.00 10 1007.5
20260507020430 14 0.0 0.0 0.00 0.00 0.00 10 1006.7
20260507015454 14 0.0 0.0 0.00 0.00 0.00 10 1006.3
20260507014517 14 0.0 0.0 0.00 0.00 0.00 10 1006.2
20260507013541 14 0.0 0.0 0.00 0.00 0.00 10 1005.9
20260507012604 14 0.0 0.0 0.00 0.00 0.00 10 1006.0
20260507011628 14 0.0 0.0 0.00 0.00 0.00 10 1005.9
20260507010652 15 0.0 0.0 0.00 0.00 0.00 10 1005.7
20260507005715 15 0.0 0.0 0.00 0.00 0.00 10 1005.6
20260507004738 15 0.0 0.0 0.00 0.00 0.00 10 1005.5
20260507003802 15 0.0 0.0 0.00 0.00 0.00 10 1005.5
20260507002826 15 0.0 0.0 0.00 0.00 0.00 10 1005.5
20260507001849 15 0.0 0.0 0.00 0.00 0.00 10 1005.3
20260507000913 15 0.0 0.0 0.00 0.00 0.00 10 1005.4
20260506235937 15 0.0 0.0 0.00 0.00 0.00 10 1005.3
20260506235001 15 0.0 0.0 0.00 0.00 0.00 10 1005.3
20260506234024 15 0.0 0.0 0.00 0.00 0.00 10 1005.4
20260506233048 15 0.0 0.0 0.00 0.00 0.00 10 1005.3
20260506232111 14 0.0 0.0 0.00 0.00 0.00 10 1005.6
20260506231134 14 0.0 0.0 0.00 0.00 0.00 10 1005.7
20260506230158 14 0.0 0.0 0.00 0.00 0.00 10 1005.5
20260506225222 14 0.0 0.0 0.00 0.00 0.00 10 1005.5
20260506224246 13 0.0 0.0 0.00 0.00 0.00 10 1005.5
20260506223310 14 0.0 0.0 0.00 0.00 0.00 10 1005.3
20260506222334 14 0.0 0.0 0.00 0.00 0.00 10 1005.3
20260506221358 15 0.0 0.0 0.00 0.00 0.00 10 1005.2
20260506220422 15 0.0 0.0 0.00 0.00 0.00 10 1005.3
20260506215445 15 0.0 0.0 0.00 0.00 0.00 10 1005.3
20260506214510 15 0.0 0.0 0.00 0.00 0.00 10 1005.2
20260506213534 15 0.0 0.0 0.00 0.00 0.00 10 1005.3
20260506212558 15 0.0 0.0 0.00 0.00 0.00 10 1005.3
20260506211622 15 0.0 0.0 0.00 0.00 0.00 10 1005.2
20260506210647 15 0.0 0.0 0.00 0.00 0.00 10 1005.2
20260506205713 16 0.0 0.0 0.00 0.00 0.00 10 1005.2
20260506204734 15 0.0 0.0 0.00 0.00 0.00 10 1004.4
20260506203758 16 0.0 0.0 0.00 0.00 0.00 10 1004.9
20260506202822 16 0.0 0.0 0.00 0.00 0.00 10 1005.0
20260506201846 16 0.0 0.0 0.00 0.00 0.00 10 1004.8
20260506200911 17 0.0 0.0 0.00 0.00 0.00 10 1004.6
20260506195936 18 0.0 0.0 0.00 0.00 0.00 10 1004.7
20260506195000 18 0.0 0.0 0.00 0.00 0.00 10 1004.8
20260506194024 18 0.0 0.0 0.00 0.00 0.00 10 1004.8
20260506193049 19 0.0 0.0 0.00 0.00 0.00 10 1004.8
20260506192113 19 0.0 0.0 0.00 0.00 0.00 10 1004.9
20260506191138 20 0.0 0.0 0.00 0.00 0.00 98 1004.8
20260506190202 20 0.0 0.0 0.00 0.00 0.00 92 1004.7
20260506185227 20 0.0 0.0 0.00 0.00 0.00 86 1004.5
20260506184251 21 0.0 0.0 0.00 0.00 0.00 77 1004.5
20260506183317 21 0.0 0.0 0.00 0.00 0.00 72 1004.2
20260506182341 21 0.0 0.0 0.00 0.00 0.00 69 1004.0
20260506181405 22 0.0 0.0 0.00 0.00 0.00 65 1003.9
20260506180430 22 0.0 0.0 0.00 0.00 0.00 65 1003.8
20260506175455 22 0.0 0.0 0.00 0.00 0.00 62 1003.7
20260506174520 23 0.0 0.0 0.00 0.00 0.00 60 1003.7
20260506173544 23 0.0 0.0 0.00 0.00 0.00 59 1003.6
20260506172608 23 0.0 0.0 0.00 0.00 0.00 57 1003.5
20260506171633 23 0.0 0.0 0.00 0.00 0.00 56 1003.4
20260506170658 24 0.0 0.0 0.00 0.00 0.00 56 1003.3
20260506165722 24 0.0 0.0 0.00 0.00 0.00 56 1003.3
20260506164747 25 0.0 0.0 0.00 0.00 0.00 56 1003.2
20260506163812 25 0.0 0.0 0.00 0.00 0.00 57 1003.0
20260506162836 25 0.0 0.0 0.00 0.00 0.00 59 1003.0
20260506161900 25 0.0 0.0 0.00 0.00 0.00 57 1002.9
20260506160925 26 0.0 0.0 0.00 0.00 0.00 57 1002.9
20260506155949 26 0.0 0.0 0.00 0.00 0.00 57 1002.9
20260506155013 25 0.0 0.0 0.00 0.00 0.00 58 1002.9
20260506154037 25 0.0 0.0 0.00 0.00 0.00 61 1003.0
20260506153102 25 0.0 0.0 0.00 0.00 0.00 67 1003.1
20260506152126 25 0.0 0.0 0.00 0.00 0.00 67 1003.2
20260506151151 25 0.0 0.0 0.00 0.00 0.00 66 1003.1
20260506150215 25 0.0 0.0 0.00 0.00 0.00 64 1003.0
20260506145239 25 0.0 0.0 0.00 0.00 0.00 67 1003.0
20260506144303 25 0.0 0.0 0.00 0.00 0.00 65 1002.9
20260506143327 25 0.0 0.0 0.00 0.00 0.00 63 1002.9
20260506142351 25 0.0 0.0 0.00 0.00 0.00 62 1002.8
20260506141415 25 0.0 0.0 0.00 0.00 0.00 62 1002.8
20260506140439 25 0.0 0.0 0.00 0.00 0.00 63 1002.8
20260506135503 25 0.0 0.0 0.00 0.00 0.00 61 1002.8
20260506134527 25 0.0 0.0 0.00 0.00 0.00 61 1002.7
20260506133550 25 0.0 0.0 0.00 0.00 0.00 64 1002.8
20260506132613 25 0.0 0.0 0.00 0.00 0.00 62 1003.0
20260506131638 25 0.0 0.0 0.00 0.00 0.00 60 1002.9
20260506130702 25 0.0 0.0 0.00 0.00 0.00 60 1002.9
20260506125726 25 0.0 0.0 0.00 0.00 0.00 59 1003.0
20260506124748 25 0.0 0.0 0.00 0.00 0.00 63 1003.2
20260506123810 25 0.0 0.0 0.00 0.00 0.00 68 1003.3
20260506122834 23 0.0 0.0 0.00 0.00 0.00 69 1003.5
20260506121858 24 0.0 0.0 0.00 0.00 0.00 68 1003.5
20260506120921 24 0.0 0.0 0.00 0.00 0.00 69 1003.6
20260506115945 23 0.0 0.0 0.00 0.00 0.00 70 1003.5
20260506115007 23 0.0 0.0 0.00 0.00 0.00 71 1003.6
20260506114031 23 0.0 0.0 0.00 0.00 0.00 70 1003.6
20260506113055 23 0.0 0.0 0.00 0.00 0.00 70 1003.7
20260506112118 23 0.0 0.0 0.00 0.00 0.00 71 1003.6
20260506111142 23 0.0 0.0 0.00 0.00 0.00 72 1003.7
20260506110206 23 0.0 0.0 0.00 0.00 0.00 72 1003.7
20260506105230 23 0.0 0.0 0.00 0.00 0.00 73 1004.0
20260506104253 23 0.0 0.0 0.00 0.00 0.00 73 1004.2
20260506103318 23 0.0 0.0 0.00 0.00 0.00 69 1004.1
20260506102344 23 0.0 0.0 0.00 0.00 0.00 70 1004.2
20260506101409 23 0.0 0.0 0.00 0.00 0.00 68 1004.3
20260506100434 23 0.0 0.0 0.00 0.00 0.00 72 1004.3
20260506095456 22 0.0 0.0 0.00 0.00 0.00 74 1004.3
20260506094519 22 0.0 0.0 0.00 0.00 0.00 74 1004.3
20260506093542 22 0.0 0.0 0.00 0.00 0.00 77 1004.3
20260506092604 21 0.0 0.0 0.00 0.00 0.00 82 1004.2
20260506091628 21 0.0 0.0 0.00 0.00 0.00 81 1004.6
20260506090649 20 0.0 0.0 0.00 0.00 0.00 87 1004.9
20260506085713 20 0.0 0.0 0.00 0.00 0.00 84 1004.8
20260506084735 20 0.0 0.0 0.00 0.00 0.00 89 1004.9
20260506083758 20 0.0 0.0 0.00 0.00 0.00 89 1005.0
20260506082821 20 0.0 0.0 0.00 0.00 0.00 90 1005.0
20260506081846 20 0.0 0.0 0.00 0.00 0.00 88 1005.2
20260506080909 20 0.0 0.0 0.00 0.00 0.00 89 1005.2
20260506073043 18 0.0 0.0 0.00 0.00 0.00 93 1005.3
20260506071129 18 0.0 0.0 0.00 0.00 0.00 10 1005.5
20260506070151 17 0.0 0.0 0.00 0.00 0.00 10 1005.8
20260506062332 19 0.0 0.0 0.00 0.00 0.00 89 1005.8
20260506060417 17 0.0 0.0 0.00 0.00 0.00 98 1006.1
20260506050633 15 0.0 0.0 0.00 0.00 0.00 10 1006.7
20260506044717 14 0.0 0.0 0.00 0.00 0.00 10 1006.9
20260506043740 13 0.0 0.0 0.00 0.00 0.00 10 1007.2
20260506042803 13 0.0 0.0 0.00 0.00 0.00 10 1007.4
20260506041826 13 0.0 0.0 0.00 0.00 0.00 10 1007.4
20260506040850 13 0.0 0.0 0.00 0.00 0.00 10 1007.5
20260506035914 12 0.0 0.0 0.00 0.00 0.00 10 1007.6
20260506034937 12 0.0 0.0 0.00 0.00 0.00 10 1007.7